Location: Feigenhofen
(48.4939°N, 10.7793°E)
Time: 17:03:34
(UTC+00:00)

Cosmos 1656 Rocket - Pass Details

Date: 26 May 2022
Orbit: 796 x 845 km, 71.1° (Epoch: 28 June)

Event Time Altitude Azimuth Distance (km) Brightness Sun altitude
Rises 02:00:17 0° 332° (NNW) 3,314 7.1 -11.1°
Reaches altitude 10° 02:02:42 10° 332° (NNW) 2,379 6.4 -10.9°
Maximum altitude 02:08:08 90° 52° (NE) 804 3.6 -10.3°
Drops below altitude 10° 02:13:33 10° 154° (SSE) 2,369 5.8 -9.7°
Sets 02:15:58 0° 154° (SSE) 3,299 6.6 -9.4°
